Regional Weather Roundup
Issued by NWS Cleveland, OH

Home | Current Version | Previous Version | Graphics & Text | Print | Product List | Glossary Off
Versions: 1 2 3 4 5 6 7 8 9 10 11 12 13 14 15 16 17 18 19 20 21 22 23 24 25 26 27 28 29 30 31 32 33 34 35 36 37 38 39 40 41 42 43 44 45 46 47 48 49 50

000
ASUS41 KCLE 262112
RWRCLE
OHIO REGIONAL WEATHER ROUNDUP
NATIONAL WEATHER SERVICE WILMINGTON, OH
500 PM EDT SAT MAY 26 2018

NOTE: "FAIR" INDICATES FEW OR NO CLOUDS BELOW 12,000 FEET WITH NO
SIGNIFICANT WEATHER AND/OR OBSTRUCTIONS TO VISIBILITY.

OHZ001>008-015>018-024>027-034-035-043-044-262200-
   NORTHWEST OHIO

CITY           SKY/WX    TMP DP  RH WIND       PRES   REMARKS
DEFIANCE       CLOUDY    75  68  78 S8        29.78R
FINDLAY        LGT RAIN  74  70  87 CALM      29.80R
TOLEDO EXPRESS CLOUDY    80  67  64 S10G30    29.77S
TOLEDO EXEC    PTSUNNY   78  70  76 SE12      29.78F
LIMA           LGT RAIN  73  69  87 CALM      29.80F
$$

OHZ009>014-019>023-028>033-038-089-262200-
   NORTHEAST OHIO

CITY           SKY/WX    TMP DP  RH WIND       PRES   REMARKS
CLE-HOPKINS    PTSUNNY   81  66  60 VRB3      29.81F
CLE-LAKEFRONT  FAIR      72  63  73 NE7       29.79S
CUY CO. ARPT   PTSUNNY   82  66  57 S12       29.82F
LORAIN-ELYRIA  PTSUNNY   80  63  55 NE7       29.80S
ASHTABULA      PTSUNNY   79  67  66 SW6       29.82F
AKRON-CANTON   PTSUNNY   78  67  68 SE6       29.83F
WOOSTER        FAIR      78  67  68 SE7       29.82F
MANSFIELD      FAIR      84  64  50 SW10      29.80F
YOUNGSTOWN     PTSUNNY   78  62  57 S6        29.84F
$$

OHZ042-051>053-060>062-070>072-077>081-262200-
  SOUTHWEST OHIO

CITY           SKY/WX    TMP DP  RH WIND       PRES   REMARKS
CINC-COVINGTON LGT RAIN  73  71  93 CALM      29.81F
CINC-LUNKEN    TSTM      72  70  93 CALM      29.81F
HAMILTON       FAIR      72  70  93 CALM      29.83R
DAYTON         PTSUNNY   74  71  91 SW8       29.82S
WRIGHT-PAT AFB PTSUNNY   73  69  87 SW5       29.81S
DAYTON GENERAL FAIR      72  68  87 S5        29.81F
WILMINGTON     PTSUNNY   72  65  78 W17G30    29.84R
$$

OHZ036-037-039>041-045>050-054>059-063>069-073>076-082>088-262200-
  CENTRAL AND SOUTHEAST OHIO

CITY           SKY/WX    TMP DP  RH WIND       PRES   REMARKS
COLUMBUS       PTSUNNY   84  64  50 S12       29.78F
OSU AIRPORT    PTSUNNY   83  64  52 S6        29.78F
BOLTON FIELD   PTSUNNY   82  66  57 S12       29.80F
RICKENBACK AFB FAIR      85  65  52 MISG      29.78F
NEWARK         FAIR      86  66  51 SW8       29.79F
MARION         FAIR      84  61  45 W9        29.79F
LANCASTER      PTSUNNY   82  68  62 VRB7      29.80F
ZANESVILLE     FAIR      80  69  69 SE8       29.82F
NEW PHILLY     FAIR      81  68  64 SE13      29.83S
$$



USA.gov is the U.S. government's official web portal to all federal, state and local government web resources and services.